Theta_e
345 345 345 346 345 348 347 349 355 355 357 353 348 351 355 359 359 364 364 363 364 361 358 354 350 351 354 353 354 354 353 353 354 351 347 350 350 349 352 350 348 346 347 349 350 348 347 348 349 349 347 347 347 349 349 350 351 353 353 353 352 351 351 349 350 350 350 350 349 349 350 351 351 351 350 347 347 350 352 352 351 351 351 349 350 350 350 351 351 350 349 348 347 346 347 349 350
346 346 345 346 346 349 349 350 360 356 352 347 346 352 356 362 363 363 364 363 365 359 354 350 350 353 353 352 352 352 353 352 352 351 349 348 349 351 351 350 349 346 348 350 351 350 346 346 348 348 347 348 349 349 350 351 352 353 352 352 352 352 351 349 349 349 348 349 348 348 348 350 350 350 348 347 349 351 352 352 350 350 350 348 349 350 351 350 350 350 350 349 349 348 348 350 350
345 346 345 346 346 350 353 354 359 351 345 345 345 355 360 363 364 364 363 363 361 356 352 351 354 355 352 353 354 354 354 349 347 347 347 348 350 350 351 352 350 347 348 349 350 351 348 345 347 346 346 349 350 350 350 351 352 352 352 352 352 352 352 351 351 349 349 349 349 348 348 349 349 349 348 349 350 351 352 352 350 350 349 349 350 350 350 351 349 350 349 349 349 349 349 349 350
346 347 345 346 348 351 358 360 360 350 344 345 344 354 361 362 363 363 362 360 357 353 353 353 355 354 355 357 355 353 353 350 348 346 347 349 350 350 351 351 349 348 347 348 350 351 348 343 345 346 346 350 350 350 351 352 352 352 353 352 352 352 352 351 352 351 350 350 349 349 348 348 348 348 348 349 351 351 351 351 351 350 350 350 350 350 349 350 350 350 348 349 349 349 349 349 350
346 346 346 349 354 357 361 362 360 352 347 347 347 355 361 361 363 362 360 358 355 354 353 354 357 354 355 356 353 354 352 349 348 347 347 349 350 351 352 351 350 350 348 348 350 351 346 340 344 346 348 351 350 351 351 352 352 353 353 352 352 352 352 351 352 351 351 350 349 349 349 348 348 348 348 348 350 350 350 351 350 350 350 349 349 349 348 349 350 349 348 350 350 350 350 348 347
345 346 346 349 355 357 361 357 351 350 352 355 353 357 361 360 362 359 359 358 355 355 353 354 356 355 355 352 352 353 350 349 348 347 347 349 351 351 352 351 351 351 350 350 350 351 344 337 342 346 349 351 350 351 352 352 352 353 354 353 352 351 352 351 352 352 351 350 350 350 348 348 348 348 348 348 349 349 350 350 349 349 349 348 348 348 348 349 349 348 348 349 349 350 349 347 346
346 347 347 352 356 357 362 353 347 350 353 358 357 358 361 361 360 358 358 358 357 355 353 355 353 356 356 352 352 351 350 350 347 347 348 349 351 351 353 352 352 352 351 350 350 350 343 335 340 346 349 351 350 351 352 352 352 353 353 353 352 351 351 352 352 352 351 351 350 349 348 349 349 349 349 348 349 350 350 349 349 350 349 348 348 347 348 350 349 347 347 348 349 349 349 347 347
347 350 349 356 363 360 358 351 350 354 354 357 357 358 361 360 358 358 358 357 359 356 354 354 351 357 357 352 354 352 350 349 348 348 349 350 350 351 352 352 353 352 351 350 350 349 341 336 338 345 349 350 350 351 351 352 353 354 353 352 352 351 351 353 353 351 351 350 350 349 348 349 350 350 350 350 350 350 351 350 350 350 349 349 349 348 348 350 350 347 346 347 348 348 348 347 346
347 353 355 359 363 357 352 350 352 356 357 356 357 360 361 360 359 358 358 357 357 355 355 353 352 358 355 353 355 351 350 349 348 349 349 350 350 351 352 353 353 352 352 352 351 349 343 339 338 344 349 350 351 351 352 353 354 353 353 352 351 352 352 352 352 351 351 350 350 350 349 349 350 350 350 349 350 351 352 349 349 349 349 350 349 348 347 349 350 347 346 346 346 348 348 346 346
349 353 360 363 359 350 346 347 351 355 358 358 359 362 361 359 358 358 358 357 356 355 355 352 352 356 355 355 354 350 350 349 348 349 349 350 350 351 353 353 353 353 353 352 351 350 346 340 337 343 348 349 350 351 352 353 354 353 352 351 351 351 351 351 351 351 350 349 350 350 350 349 349 349 349 349 349 350 351 350 349 349 349 349 347 347 347 349 351 348 346 346 347 348 348 346 347
356 354 358 362 355 346 343 345 350 356 357 359 361 361 358 358 358 357 357 356 355 355 354 353 355 354 355 355 354 351 350 350 348 349 349 350 351 351 352 352 353 352 353 352 351 350 348 343 337 339 344 348 348 351 353 352 353 353 352 351 350 350 350 350 350 350 349 349 349 349 349 349 348 348 349 349 348 348 349 350 350 350 349 349 347 347 347 348 350 348 345 346 347 347 347 346 347
360 359 358 358 352 348 348 348 352 357 358 358 362 360 356 357 359 358 357 357 355 356 354 354 355 353 355 356 355 352 350 350 348 349 349 350 350 351 352 352 353 353 353 352 350 349 350 347 341 337 340 345 347 351 353 352 353 352 352 350 349 349 349 349 349 348 348 349 350 349 349 349 348 348 348 348 348 348 348 348 348 348 348 347 347 347 346 346 349 348 345 344 346 347 346 346 346
360 360 359 356 353 353 353 352 355 358 356 357 360 360 356 356 359 359 358 357 356 357 354 352 351 352 355 355 354 350 349 350 348 349 349 349 350 351 352 352 353 353 352 352 351 351 350 350 347 340 337 342 346 349 352 352 352 351 350 350 348 348 349 349 348 348 349 350 351 351 350 350 349 348 348 348 348 348 348 347 348 348 347 347 346 346 346 346 349 350 347 343 343 344 345 346 345
360 360 358 359 356 356 356 353 355 352 349 354 359 358 356 355 358 356 357 358 356 356 353 351 349 353 355 355 354 349 348 349 349 348 348 349 350 351 352 352 352 352 352 352 352 351 351 351 350 347 338 340 346 349 351 352 352 351 349 348 348 348 349 348 347 348 348 349 350 351 351 350 351 350 349 350 349 348 349 349 350 352 351 351 349 349 349 349 350 350 349 346 342 343 345 345 345
358 357 358 360 356 355 356 353 353 349 346 355 358 357 356 355 355 355 356 358 356 352 351 351 350 352 354 355 355 349 349 349 348 348 348 349 350 351 352 351 352 353 352 352 352 351 352 351 350 350 342 338 345 349 351 352 352 351 349 348 348 347 347 347 347 347 348 349 350 351 351 351 351 351 351 351 351 351 350 351 352 352 352 352 351 351 351 351 352 350 350 347 343 343 346 344 344
355 356 359 358 353 352 353 355 354 348 347 356 357 356 358 356 354 354 354 354 355 350 350 352 349 351 351 352 352 348 350 349 349 348 348 350 350 351 351 352 352 352 352 352 353 351 352 352 351 352 346 338 343 349 351 352 351 350 350 349 348 346 346 345 344 347 349 350 351 351 351 352 352 352 352 351 351 352 351 351 352 352 351 351 352 351 351 351 351 351 351 349 344 343 345 344 343
354 358 362 355 352 351 351 356 351 345 349 357 356 355 357 358 353 352 351 351 353 352 351 351 349 350 349 350 351 350 350 349 348 348 348 350 350 351 350 352 352 352 352 352 352 351 351 352 352 353 349 339 339 347 350 351 350 350 350 349 348 346 345 344 342 346 350 352 350 350 350 351 352 351 351 350 351 352 351 352 351 351 350 350 351 351 351 352 351 351 351 349 346 346 346 345 345
356 360 359 353 355 355 353 356 350 347 353 358 357 355 356 357 354 352 353 354 353 353 352 351 350 350 350 351 350 349 349 348 348 347 348 350 349 350 350 352 352 352 352 352 350 350 351 352 353 353 351 343 338 345 349 350 351 350 350 349 348 346 346 344 342 345 349 352 350 349 349 350 350 350 350 349 350 351 352 351 351 351 350 350 351 351 352 352 352 351 350 350 349 349 348 346 347
358 360 357 354 358 357 353 354 351 350 352 356 356 355 355 355 355 353 356 356 354 355 354 352 351 351 350 351 351 350 349 348 348 348 348 348 349 349 350 351 352 352 352 352 351 350 351 352 353 353 352 346 339 343 347 349 351 350 350 349 348 347 347 346 344 343 346 350 349 348 349 348 348 349 350 349 350 350 350 349 350 350 349 351 350 350 352 352 352 351 351 351 350 349 348 347 349
357 358 358 357 357 356 353 352 353 351 351 356 356 354 355 353 353 353 356 358 356 357 355 353 353 351 350 350 350 350 348 348 347 348 349 348 349 349 350 351 350 352 352 353 352 351 351 352 354 353 353 349 341 343 347 349 351 350 350 350 348 348 347 346 344 343 344 347 347 347 348 347 348 350 349 348 349 350 350 349 349 349 350 350 350 350 351 350 350 352 353 352 350 349 349 349 351
356 356 359 358 356 356 354 352 352 351 349 353 355 355 354 352 352 353 355 358 358 357 354 353 353 351 350 348 349 350 349 348 348 348 349 349 349 349 349 351 350 351 352 352 353 352 352 352 353 352 353 351 343 344 348 348 351 350 350 350 349 348 348 346 345 342 342 345 346 347 348 347 347 351 349 348 349 349 350 350 349 349 350 349 348 350 349 348 349 350 351 350 350 350 349 350 351
356 356 357 357 356 357 355 351 351 351 349 351 354 355 354 352 352 352 355 358 358 356 352 352 351 349 349 348 348 350 349 348 348 349 349 349 349 349 349 350 350 351 352 352 352 352 353 352 352 353 354 352 344 343 349 349 349 351 350 350 349 348 348 347 346 343 342 344 347 349 349 349 349 350 349 348 348 349 351 351 350 349 349 349 348 350 349 348 349 349 349 348 348 350 348 348 349
355 356 355 355 356 356 356 353 353 351 349 350 352 353 351 352 353 351 354 355 354 352 352 351 350 350 350 349 348 347 346 346 348 349 349 349 349 349 349 350 350 351 351 352 353 353 354 353 352 353 353 354 348 341 347 351 350 351 350 350 350 349 348 348 348 345 343 345 347 349 350 351 351 351 349 348 348 350 351 351 351 351 351 351 350 352 351 351 351 350 350 348 348 350 350 349 348
354 356 354 354 354 354 354 352 352 350 349 349 348 350 351 353 353 352 353 353 351 351 350 350 350 352 350 348 347 346 347 347 348 349 348 349 349 350 350 350 350 351 351 351 352 352 353 354 353 354 353 354 351 341 343 351 351 351 351 350 351 349 348 350 349 347 345 345 346 349 351 352 353 352 351 350 349 350 351 351 351 352 353 353 352 353 355 355 353 353 351 349 350 351 352 350 349
352 354 353 352 352 351 350 348 348 346 346 346 345 349 349 351 352 351 353 351 351 351 350 350 350 351 349 347 347 347 348 348 349 349 349 349 349 349 350 350 350 351 351 350 351 352 353 354 354 354 354 354 353 347 344 349 351 352 352 351 352 350 349 351 349 346 345 344 345 348 350 352 352 352 352 351 351 351 351 351 352 353 353 354 353 354 355 355 355 355 353 351 351 350 352 352 350
350 353 351 350 351 349 348 347 347 345 344 343 344 347 347 348 350 350 352 351 351 351 349 349 349 349 349 348 348 347 347 348 350 350 350 349 348 350 350 350 350 350 351 351 351 352 352 353 354 353 354 353 354 350 346 345 348 351 352 352 353 352 351 350 348 348 347 345 344 346 349 351 351 352 352 351 351 352 352 352 353 353 354 353 354 355 354 354 355 355 355 354 354 353 353 353 352
344 347 347 348 347 345 344 343 342 342 341 341 342 344 344 346 349 350 350 351 351 351 351 350 350 350 350 348 348 348 348 347 349 350 349 350 349 349 350 350 350 351 351 351 351 351 352 353 354 353 354 354 353 352 348 342 344 350 351 351 352 353 352 350 349 350 348 345 343 343 348 349 350 351 351 351 351 352 352 353 353 354 355 354 354 354 353 353 354 354 354 355 355 354 354 353 352
341 341 342 342 340 339 337 337 337 338 340 340 341 344 344 345 348 349 351 351 351 352 352 350 350 351 349 349 349 349 349 349 350 350 350 350 350 350 350 350 350 351 351 351 350 351 352 352 353 353 353 353 353 352 350 342 341 348 350 350 352 352 352 351 350 349 346 343 341 342 347 349 350 350 349 350 351 352 353 353 353 353 354 354 353 353 353 352 352 353 352 352 353 352 353 352 351
339 339 341 340 338 338 337 336 336 337 339 339 341 341 343 346 346 348 352 352 352 352 352 351 351 350 349 349 348 348 350 350 350 350 350 350 350 350 349 350 349 351 351 350 351 351 351 351 352 352 353 353 353 352 352 345 338 344 349 349 350 350 351 350 348 346 343 342 341 343 347 350 351 350 350 351 351 352 352 352 353 353 354 354 353 352 352 352 351 352 352 352 352 352 353 352 350
337 337 339 340 337 337 337 336 335 338 338 339 341 335 339 348 345 348 353 352 353 353 354 352 351 351 350 350 349 349 350 350 351 351 351 350 350 350 350 350 349 350 351 351 351 351 351 351 351 352 352 353 353 352 352 348 339 340 346 347 348 349 350 348 344 342 341 342 343 344 348 350 351 351 351 351 352 352 352 353 353 354 354 354 353 352 352 353 352 352 353 353 352 352 354 352 350
335 334 334 337 331 331 337 337 336 339 337 339 342 332 336 346 344 350 353 352 354 354 354 352 351 351 350 350 349 348 349 351 351 350 351 351 351 351 351 351 350 350 351 351 351 351 352 352 351 352 352 352 352 352 352 350 341 337 340 343 344 346 347 345 343 342 342 343 345 345 347 350 351 351 351 351 352 353 353 354 353 353 354 354 354 353 353 354 353 354 354 353 354 353 353 350 348
331 327 326 332 328 330 337 336 336 340 338 340 340 332 337 344 345 351 353 352 354 354 355 353 352 352 350 350 349 348 349 350 352 351 351 351 351 351 351 351 351 350 350 351 351 352 352 352 351 352 352 352 352 352 352 352 346 337 336 338 340 341 342 342 342 341 342 344 345 346 347 349 351 351 352 352 353 353 354 354 354 353 354 354 354 354 354 354 354 355 353 352 353 352 350 348 343
328 324 321 327 327 328 333 335 335 337 338 340 339 336 339 342 346 352 352 352 355 355 355 354 352 352 351 350 349 349 349 350 351 352 352 351 351 352 351 352 351 350 350 349 351 351 352 352 351 352 352 352 351 351 352 352 350 344 336 335 337 339 339 339 340 340 341 343 345 346 346 347 350 352 352 353 354 354 354 353 353 354 354 355 354 354 354 353 354 355 353 349 347 343 342 343 341
323 324 321 325 329 326 328 333 335 334 336 340 341 340 341 341 349 353 352 353 354 356 355 353 352 351 351 350 349 349 349 349 350 351 352 351 352 352 352 353 352 351 350 349 350 351 352 352 351 352 352 352 351 351 352 352 352 349 342 335 335 337 338 338 339 340 341 342 344 345 346 347 348 352 353 353 354 354 353 353 353 354 355 355 354 354 353 352 352 352 352 348 342 336 335 336 337
319 322 321 323 327 327 328 332 333 333 335 338 340 341 342 342 349 353 353 352 354 355 355 354 353 351 351 351 349 350 350 349 350 352 353 352 352 352 352 353 352 352 351 350 350 351 352 352 351 352 352 351 351 351 351 352 352 351 347 338 334 336 338 339 339 340 341 342 344 344 345 347 349 351 352 353 353 354 354 353 353 354 355 355 355 355 353 352 352 351 351 348 340 336 334 334 334
323 325 324 322 322 325 330 332 332 332 333 336 337 338 340 340 345 353 353 353 354 355 355 355 354 352 351 351 350 350 351 350 351 352 353 353 352 352 352 353 352 352 351 350 351 351 352 352 352 352 350 350 351 351 351 351 351 351 350 345 339 336 336 339 339 340 341 342 342 343 346 348 350 351 352 352 352 353 354 353 354 354 354 356 355 355 354 353 353 352 351 348 341 335 334 334 334
326 327 326 325 323 324 331 333 331 332 331 333 335 336 337 337 341 350 353 353 354 354 356 356 354 353 352 351 350 351 351 350 352 353 353 353 353 353 352 353 352 352 352 351 351 351 351 352 352 351 350 351 352 351 350 350 351 351 351 349 344 339 335 338 340 340 342 343 341 344 348 350 351 352 352 352 351 351 352 352 354 354 354 356 355 353 353 353 353 353 351 348 344 337 336 337 335
326 326 325 325 325 325 330 331 329 329 329 331 335 334 335 336 337 347 353 354 355 354 355 356 355 354 353 352 351 351 351 351 351 353 353 353 353 353 353 353 353 353 352 352 351 351 351 352 352 352 351 351 350 350 350 350 351 350 351 349 345 342 337 337 342 343 343 343 342 346 351 351 352 352 352 351 350 350 352 352 353 353 354 355 356 354 355 355 354 353 349 346 343 338 338 338 336
324 325 324 323 325 327 328 329 327 328 328 329 334 331 333 337 335 344 353 354 354 353 354 354 355 355 354 352 352 351 351 351 351 350 352 354 353 353 353 353 354 353 353 352 352 351 352 352 352 352 351 351 351 350 349 348 348 348 348 347 345 344 339 336 342 344 341 342 346 349 352 353 353 353 353 352 350 351 353 353 353 353 354 354 356 356 356 355 355 354 351 346 341 338 339 338 336
321 323 322 321 325 326 323 325 326 327 327 328 331 329 332 336 335 341 350 352 353 353 352 354 354 354 354 353 352 352 351 352 351 350 351 353 353 353 353 354 354 354 353 353 352 352 352 352 352 352 352 350 350 349 347 346 347 346 347 347 344 343 339 335 337 339 336 340 348 351 352 353 354 354 354 353 352 352 353 354 354 353 353 353 354 356 356 357 356 355 353 347 342 341 343 341 338
319 321 321 322 326 325 323 324 326 326 326 327 327 324 325 333 336 338 346 351 353 354 353 353 353 353 353 352 352 351 351 352 352 350 350 352 354 354 353 354 354 354 354 353 352 351 351 352 351 352 351 350 350 349 347 348 348 348 348 348 347 344 343 340 341 341 338 339 348 353 353 353 354 354 354 353 353 353 353 354 354 353 353 352 352 353 356 357 357 356 355 350 344 341 344 344 341
316 319 321 322 326 328 327 328 327 324 324 327 325 319 321 331 334 336 345 353 354 355 354 354 353 354 353 353 353 351 351 351 351 351 350 352 354 354 354 354 354 354 354 353 353 352 352 352 351 351 351 350 350 349 348 349 349 350 350 350 350 349 349 348 348 347 347 346 351 355 354 352 354 354 354 354 354 353 354 353 353 353 353 351 351 353 355 355 355 356 356 353 346 341 341 344 344
313 318 321 322 325 327 327 327 325 321 321 326 325 319 319 325 329 334 345 352 354 354 354 355 354 354 353 353 353 352 351 351 351 351 350 351 353 354 354 354 354 354 354 354 353 352 352 352 352 352 351 351 350 350 350 350 350 351 351 351 351 350 351 352 348 347 350 348 350 355 354 352 353 353 354 354 354 355 354 353 353 353 352 350 349 352 354 354 356 355 355 354 349 343 341 342 344
314 320 323 323 324 326 328 327 324 323 323 326 327 323 319 319 325 337 344 347 352 355 355 355 355 354 353 353 352 352 351 351 351 351 350 351 353 355 354 354 354 353 354 354 354 353 353 353 351 352 352 351 351 350 350 350 351 351 351 351 351 350 350 351 347 345 347 345 345 353 354 352 352 352 353 354 354 354 354 353 353 353 352 348 347 351 354 354 355 355 355 355 351 347 344 342 341
318 324 324 324 325 326 328 327 324 324 324 323 324 323 319 317 324 337 343 341 346 355 356 355 354 353 353 352 352 351 351 351 350 350 351 351 353 354 353 354 354 353 354 354 354 354 354 353 352 351 352 352 351 350 349 350 350 350 351 351 353 351 350 351 348 346 347 344 344 349 352 353 353 352 353 354 354 354 354 354 353 353 353 348 346 351 355 354 354 354 356 356 353 349 346 343 341
320 324 325 325 326 328 328 328 324 323 324 323 323 322 320 319 320 329 337 334 337 349 354 354 354 353 353 352 351 351 350 351 350 349 350 352 353 354 353 354 354 353 355 355 354 355 355 354 354 353 353 353 352 350 349 350 349 350 351 352 353 353 351 352 352 350 350 348 348 349 351 352 352 353 353 353 354 354 354 353 353 352 353 349 346 348 353 354 354 354 355 357 356 352 348 344 343
321 323 325 324 326 327 328 327 324 323 323 323 322 321 321 320 320 324 332 333 335 344 348 352 354 352 352 352 350 351 351 350 350 349 349 352 353 352 353 353 354 354 354 355 355 355 355 355 355 354 353 353 353 351 350 351 350 351 351 351 352 352 353 353 353 354 352 352 352 352 352 352 352 353 353 353 353 354 353 354 354 353 353 352 348 345 347 352 355 354 354 356 357 355 352 348 346
322 323 322 321 322 322 322 322 322 323 322 321 321 322 321 320 321 326 333 335 335 338 342 348 352 352 353 351 350 350 350 350 350 349 349 350 351 352 353 353 354 354 354 355 355 355 356 356 356 356 355 354 354 353 352 352 352 352 351 351 351 352 353 352 353 354 353 352 353 354 353 352 352 352 353 353 354 354 353 353 353 353 352 352 351 348 344 348 353 354 352 354 357 357 355 353 350
322 322 320 318 320 321 320 320 320 321 319 319 321 321 318 319 323 328 333 332 332 334 336 340 347 351 353 352 350 349 349 349 350 350 349 350 351 351 353 354 354 355 354 355 355 355 356 356 356 356 357 356 355 354 353 353 353 353 352 352 352 352 353 353 352 353 352 351 352 354 353 352 352 352 353 354 353 353 353 353 353 352 353 352 352 351 347 345 348 352 352 353 356 357 356 355 352
322 319 318 318 320 322 322 320 320 319 317 317 319 320 317 318 323 329 330 329 329 333 334 335 341 348 352 352 351 349 349 349 349 349 349 348 350 351 353 353 354 355 354 355 355 355 356 357 356 357 357 357 355 355 355 354 355 354 353 352 352 353 353 353 352 353 353 351 351 353 352 353 353 352 353 353 353 353 352 352 352 351 352 351 351 352 351 348 346 349 351 351 354 357 357 355 353
323 322 321 319 318 320 321 319 319 318 316 316 317 318 316 316 322 328 328 328 329 330 331 334 339 345 349 350 350 349 349 349 349 349 349 349 350 352 352 352 353 354 353 354 355 356 357 357 357 357 358 358 357 356 355 355 355 354 354 354 353 353 353 353 353 353 352 351 351 352 352 352 353 352 352 352 352 353 352 352 351 351 351 351 351 351 352 352 349 347 348 348 351 356 357 356 355
324 326 323 320 320 320 319 318 318 317 315 315 316 317 318 321 326 328 327 328 329 329 330 332 337 342 346 347 349 349 349 348 348 348 349 350 350 351 352 352 353 353 353 353 354 356 357 357 357 357 357 358 357 356 357 356 356 355 355 354 354 354 353 354 354 352 352 351 351 351 351 351 352 352 351 351 352 352 352 352 351 351 351 350 351 351 351 353 351 348 346 344 348 355 356 356 355
322 323 320 323 326 323 318 317 318 318 317 318 316 315 318 321 323 325 326 327 327 328 329 330 333 340 345 347 348 349 349 349 348 348 349 349 350 351 352 352 352 353 352 353 354 356 357 357 357 357 357 357 357 357 357 356 356 356 355 354 354 354 354 354 354 353 353 353 351 351 351 351 351 351 351 350 352 352 352 353 351 351 351 351 351 351 352 353 352 351 347 343 346 353 356 356 357
321 319 320 325 326 324 321 319 319 319 318 318 315 313 314 314 318 325 327 327 327 328 328 329 332 339 343 345 347 349 350 349 349 349 349 348 350 350 350 351 352 352 352 353 355 356 355 356 357 357 357 357 357 357 357 357 357 357 356 355 355 355 354 354 354 354 353 354 353 352 352 351 351 352 351 351 351 351 351 352 352 351 351 351 351 351 351 352 352 353 350 346 345 350 354 356 357
322 321 324 323 320 320 321 320 320 319 318 318 316 314 314 312 315 322 325 326 327 329 330 329 330 337 342 342 346 349 349 350 350 349 349 348 348 349 350 350 351 352 352 353 354 354 355 355 356 356 357 357 356 357 357 357 357 356 356 356 355 355 354 354 355 355 354 353 353 352 352 352 351 351 351 351 351 351 351 351 352 352 351 351 350 351 351 351 352 354 353 351 350 348 351 355 356
322 322 325 324 320 319 320 320 320 318 319 319 317 315 314 316 319 322 324 328 329 330 334 334 330 334 340 342 344 348 349 350 350 349 350 348 348 350 350 349 350 351 352 352 352 353 354 355 355 356 356 357 356 357 357 357 357 357 357 356 356 355 354 354 354 354 354 353 353 353 353 352 351 351 351 351 351 351 351 351 352 352 352 352 351 350 351 351 352 354 356 357 355 350 350 353 355
320 320 321 321 321 321 321 321 319 318 319 319 319 317 314 319 326 325 325 330 331 331 336 338 334 332 336 341 344 346 348 348 349 349 349 348 347 349 350 349 349 350 351 351 351 352 353 353 355 355 356 356 356 356 357 357 357 357 357 357 356 355 354 354 355 354 355 354 353 352 352 352 352 351 351 351 351 351 351 351 352 352 352 352 352 351 351 351 352 355 358 359 358 355 352 353 355
317 319 319 319 320 319 320 320 319 317 317 318 319 317 315 321 330 328 324 327 329 331 334 335 335 333 334 339 342 346 348 347 348 348 348 347 347 349 349 349 349 349 350 351 350 352 352 353 354 354 355 356 356 356 357 357 357 357 357 356 356 356 355 355 355 355 355 355 354 352 352 352 352 351 351 351 351 351 351 351 351 352 351 351 351 351 351 352 351 353 357 358 359 358 357 356 355
Wind_Speed
14 13 13 12 12 10 6 2 1 1 2 3 2 2 0 2 1 2 3 4 3 2 3 7 11 8 6 4 6 6 6 5 2 2 3 3 14 22 17 21 30 28 24 20 18 19 18 17 17 17 17 17 17 17 17 17 17 16 16 16 15 15 15 15 15 14 14 13 13 12 12 12 13 13 13 13 13 12 11 10 10 11 11 12 12 12 11 10 10 11 10 10 10 10 12 13 14
14 14 13 11 11 6 3 2 2 1 2 2 1 1 1 1 2 3 3 4 3 5 7 11 11 7 7 8 8 7 7 6 4 3 4 13 21 18 19 24 28 27 23 19 18 18 17 18 17 17 17 17 17 17 16 16 16 15 16 15 15 15 15 15 15 14 14 13 13 12 12 12 13 13 13 13 12 11 11 10 10 11 12 12 12 11 10 10 10 11 10 11 11 11 12 13 13
15 15 13 11 7 2 1 1 2 1 1 2 1 1 0 1 2 2 4 4 6 9 11 12 9 6 8 10 5 4 5 4 7 8 8 20 20 17 23 24 25 25 22 20 18 17 17 18 17 18 17 17 16 16 16 15 15 15 15 14 14 14 14 14 14 14 14 13 13 12 12 12 12 13 13 12 11 11 10 10 11 11 11 11 11 10 10 10 11 12 11 12 12 12 12 13 12
16 13 13 10 4 1 1 2 2 2 2 1 1 1 1 1 3 5 5 7 10 11 12 11 7 4 3 8 4 3 5 4 8 10 12 18 17 22 26 24 25 24 23 20 18 16 17 19 18 18 17 16 16 16 15 15 15 15 14 14 14 14 14 14 14 14 14 13 13 12 12 12 12 12 12 11 11 10 10 10 10 11 11 10 10 10 9 10 11 12 12 12 13 13 13 12 11
14 12 11 5 2 1 1 2 1 2 1 1 2 1 1 2 6 7 7 9 11 12 12 8 5 3 3 6 2 2 6 6 9 13 17 17 18 26 25 25 26 24 23 20 18 17 18 19 18 18 17 16 15 15 15 14 14 14 13 13 13 13 13 14 14 14 13 13 12 12 12 12 12 11 11 10 10 10 9 9 9 10 10 9 9 10 10 10 11 12 12 13 13 12 12 11 10
13 11 7 2 2 1 2 2 1 3 2 2 3 2 2 4 7 9 8 9 10 10 9 5 6 7 5 5 3 3 5 6 10 15 20 20 23 28 25 25 25 23 23 20 19 17 19 20 17 18 16 15 15 15 14 14 14 13 12 13 13 13 13 13 14 14 13 12 12 11 11 11 11 11 10 10 9 9 9 9 9 9 9 9 10 10 10 10 11 12 12 12 12 11 11 11 11
14 9 4 3 2 2 2 2 2 2 1 2 3 2 3 6 8 10 11 10 10 8 5 6 8 9 5 3 4 5 3 4 11 16 21 25 28 28 25 25 24 23 22 21 20 19 20 20 18 17 16 15 15 14 14 13 13 13 12 13 13 13 13 14 13 13 13 12 12 11 11 11 11 11 11 10 10 10 9 9 9 8 9 10 10 10 10 10 11 12 11 11 11 11 11 11 10
11 4 2 3 1 2 2 3 2 2 0 2 2 1 5 9 10 11 12 10 10 9 7 9 8 6 5 3 3 4 4 6 13 18 24 29 31 29 26 25 25 24 24 22 20 20 21 20 18 17 16 15 14 14 13 13 13 13 13 13 13 13 13 13 13 13 13 12 12 11 11 11 11 11 11 11 10 10 9 8 8 8 8 10 10 10 10 11 11 11 11 10 10 10 11 10 9
8 2 2 2 2 1 2 3 2 2 2 2 1 3 7 10 10 10 11 9 10 11 10 11 6 4 6 5 4 4 5 11 17 22 28 32 32 29 26 25 26 26 24 22 20 21 20 19 19 17 16 15 14 14 13 12 12 13 13 13 13 13 13 13 13 12 12 12 12 12 11 11 11 11 11 11 10 10 9 7 8 8 8 9 9 10 10 11 10 10 11 10 10 11 11 10 9
5 2 1 1 1 2 2 1 1 2 1 1 2 6 9 10 10 10 10 10 11 11 10 7 4 6 9 7 5 4 8 16 21 24 29 32 30 26 25 24 25 25 23 21 20 20 20 19 19 17 16 15 14 13 12 12 12 13 14 14 13 13 13 13 12 12 12 12 12 12 11 11 11 11 11 11 11 10 10 8 7 8 8 8 8 9 10 10 11 11 11 10 10 11 10 10 10
3 2 2 2 1 2 2 1 2 2 0 2 4 7 8 10 10 9 9 10 10 10 9 6 7 10 10 6 4 5 12 19 23 27 30 31 29 26 26 25 24 23 22 21 21 21 20 19 18 17 15 15 14 12 12 12 12 13 14 14 13 13 12 12 12 12 12 12 12 12 12 12 11 12 12 11 11 10 10 9 8 7 7 7 7 9 10 11 11 11 10 9 9 10 10 9 10
2 2 2 2 2 2 2 3 4 3 1 3 5 7 7 10 9 9 11 11 10 10 8 6 8 10 8 5 3 9 16 19 22 28 31 30 28 26 26 25 23 22 21 21 21 22 20 19 18 16 15 14 14 12 11 12 12 13 14 13 13 13 12 12 11 11 12 11 12 11 11 12 12 12 12 11 11 11 11 10 10 9 8 7 7 8 10 12 11 9 10 9 8 9 10 9 10
2 1 1 2 2 3 4 4 3 2 1 2 5 7 8 10 8 9 11 10 10 9 6 7 10 7 6 6 6 10 15 19 23 28 30 29 27 25 25 24 23 22 21 21 21 21 20 19 18 16 15 14 13 12 11 12 13 14 13 13 13 12 12 11 11 11 11 11 11 11 11 11 11 11 11 11 11 11 11 11 11 11 10 8 7 8 9 10 10 9 9 9 8 9 10 10 11
2 1 1 1 2 3 5 3 2 2 1 3 5 8 9 7 6 8 9 10 9 6 7 10 11 7 6 7 6 8 13 20 25 27 28 26 26 25 24 24 24 23 22 21 20 20 19 19 18 17 16 14 13 12 11 12 13 13 13 12 12 11 11 11 11 11 11 11 11 10 10 10 10 10 10 11 11 10 10 9 10 11 11 9 9 9 9 9 10 9 9 9 8 8 10 11 12
2 1 1 2 3 3 3 2 1 1 2 4 6 9 8 3 5 8 8 10 6 6 10 9 8 5 7 10 8 11 18 24 26 27 27 25 24 24 23 24 23 22 21 20 19 20 19 18 18 17 17 15 13 12 11 12 13 13 12 12 11 11 11 10 10 10 10 10 10 10 10 10 10 10 9 10 10 9 8 8 8 9 10 10 9 10 10 10 10 10 10 8 7 8 9 9 11
3 1 2 2 3 2 2 2 1 0 2 4 7 9 8 3 5 6 5 6 7 8 8 6 7 1 6 11 10 18 24 27 28 27 27 25 24 23 23 23 22 22 21 20 18 19 18 18 18 16 17 17 14 12 11 12 13 13 12 11 11 11 10 10 10 10 10 9 9 9 9 10 9 10 9 9 10 9 8 8 8 8 8 9 8 8 9 9 10 11 10 8 7 8 8 8 9
3 2 3 3 3 2 2 3 1 1 2 5 8 10 8 5 5 4 5 7 10 10 5 5 4 0 5 10 16 26 28 28 28 28 27 25 24 23 22 21 21 21 21 20 19 19 18 18 17 16 17 17 16 13 12 12 13 12 12 11 11 10 10 10 10 9 9 8 9 9 9 9 9 9 9 9 9 8 8 8 8 7 8 8 8 8 8 8 9 10 10 9 9 9 8 8 9
4 3 3 4 4 3 2 1 1 2 0 6 9 11 10 8 8 6 7 8 10 9 5 7 6 6 10 15 23 28 29 29 29 29 28 25 24 23 22 21 21 21 21 21 20 20 19 18 17 16 17 17 16 14 12 13 13 12 12 11 10 10 10 9 9 9 8 8 8 8 8 9 9 9 8 8 8 8 7 7 8 7 8 8 8 8 8 8 8 9 10 11 11 11 10 8 9
5 4 4 5 4 2 1 1 2 4 2 5 9 10 9 9 10 8 8 9 11 9 7 8 9 11 14 20 27 28 29 30 29 29 28 26 25 25 24 23 22 21 21 21 21 20 19 19 17 17 17 17 17 15 13 13 13 13 12 11 11 10 10 9 9 8 7 7 8 7 8 8 8 8 8 7 7 7 6 7 7 7 7 7 8 8 7 7 7 8 9 10 11 12 11 9 8
6 5 6 5 5 4 2 4 5 4 2 5 8 8 7 8 9 8 8 10 11 10 9 10 11 13 16 21 27 28 29 29 28 28 26 26 25 25 25 24 24 22 21 20 20 20 20 19 18 18 17 17 18 16 14 13 13 13 12 11 11 10 10 9 8 8 8 7 7 7 7 8 8 7 7 6 5 5 5 6 7 6 6 6 6 7 6 6 6 6 7 9 10 10 10 9 7
5 7 6 2 2 4 1 3 3 3 2 4 6 7 7 8 8 8 9 10 8 10 12 13 15 18 19 21 25 29 29 28 28 26 25 25 24 24 24 23 23 23 22 20 19 19 19 19 19 18 17 17 18 17 14 14 13 13 13 11 11 10 10 9 8 8 8 7 7 7 7 7 7 6 6 6 4 4 4 4 5 5 5 5 5 6 5 5 5 5 7 8 9 9 9 8 7
5 9 9 4 2 2 2 3 3 5 2 3 7 8 7 8 9 9 12 11 6 8 13 14 17 21 23 24 25 27 26 26 27 25 24 24 24 24 24 23 22 22 22 21 20 19 19 20 20 19 17 17 17 18 15 14 14 13 13 12 11 10 9 9 8 8 8 7 6 6 6 6 6 5 5 5 4 4 3 3 3 3 4 4 6 6 5 6 5 5 7 7 8 8 8 8 7
6 8 9 9 7 7 5 6 7 7 4 2 4 6 6 9 9 10 15 12 1 5 12 14 16 20 24 25 25 25 24 24 26 27 26 25 25 23 24 24 23 23 22 21 21 20 19 20 21 19 18 17 16 19 15 12 13 13 14 13 12 11 10 9 8 8 8 7 6 6 5 5 5 4 4 4 4 4 3 3 3 3 4 4 5 5 4 5 4 4 5 6 7 6 6 6 6
9 8 8 8 8 9 8 8 10 9 7 7 4 5 8 11 9 9 15 10 2 8 14 16 17 20 23 23 22 23 23 23 25 26 25 24 24 22 22 23 23 23 22 22 21 20 20 20 21 19 18 17 15 18 17 12 12 12 13 13 12 12 11 9 9 9 8 7 7 6 6 5 5 4 4 4 4 4 3 3 3 3 4 4 4 3 3 3 3 4 4 5 5 5 5 5 5
14 11 6 6 6 7 7 8 9 9 8 7 5 7 10 13 8 8 14 9 6 11 15 17 18 19 21 21 22 21 20 22 23 24 23 22 22 21 20 21 22 22 23 23 21 21 21 20 20 19 18 17 15 16 17 14 12 11 11 11 11 11 11 10 10 10 9 8 8 7 7 6 5 5 4 5 4 3 3 3 3 3 3 3 3 2 2 2 3 3 4 5 5 5 5 4 4
11 13 7 7 8 8 9 10 11 10 7 6 7 9 11 12 8 7 13 10 11 14 17 18 19 19 19 19 21 20 20 21 23 24 23 21 22 22 21 20 21 22 22 23 22 21 21 21 21 20 19 17 15 15 17 17 14 12 11 11 10 10 10 10 10 9 8 8 8 8 8 7 6 5 5 5 4 3 2 2 2 2 2 2 3 3 3 3 3 3 3 4 4 5 4 3 3
4 9 10 12 13 12 11 12 12 11 9 9 10 11 11 10 9 8 10 14 15 16 17 18 19 19 19 18 18 19 20 23 24 24 22 21 22 22 22 21 21 21 22 23 23 21 22 22 21 21 19 17 16 15 16 20 17 13 11 10 10 9 9 9 9 8 8 9 9 9 8 7 6 5 5 5 4 3 2 1 1 1 2 2 3 3 3 4 3 3 3 2 3 3 2 3 2
3 5 8 10 11 12 12 12 11 8 7 9 10 12 10 9 11 9 10 16 17 18 18 19 19 17 18 18 18 16 17 22 23 23 23 23 23 23 24 23 23 22 22 24 23 21 22 23 22 22 20 18 18 16 15 20 20 14 11 11 10 9 8 8 9 9 9 10 10 9 8 7 6 6 5 5 4 2 1 1 0 1 2 3 3 3 3 3 3 3 3 2 2 2 2 3 3
7 7 8 8 9 12 13 12 9 7 6 6 6 9 8 10 11 8 13 16 17 18 18 18 17 16 16 17 16 14 16 21 21 22 24 24 23 23 24 24 24 23 22 23 23 22 23 23 23 22 21 19 18 17 14 18 22 17 13 12 10 9 8 9 11 11 11 11 10 9 8 7 7 6 5 4 3 2 2 1 1 2 3 3 3 2 2 2 2 2 2 2 2 3 3 3 4
8 7 7 8 8 9 7 6 8 9 8 6 5 6 5 9 11 10 15 17 17 17 17 17 16 14 15 15 15 15 17 20 21 22 24 23 22 23 24 23 24 22 20 22 24 24 23 23 22 22 21 21 19 18 14 17 23 21 16 14 11 10 10 11 13 13 12 11 10 10 9 8 7 6 4 3 2 2 2 2 2 2 3 3 3 3 3 3 2 2 2 2 2 2 2 3 4
7 5 5 6 5 5 1 2 5 8 6 9 9 6 5 5 8 14 15 18 19 16 17 16 15 14 14 15 15 16 17 20 23 24 24 23 22 22 23 23 24 22 20 22 24 24 24 23 23 21 22 22 20 18 15 16 22 23 20 17 14 13 13 13 14 14 13 12 11 10 9 9 7 6 4 3 3 3 3 4 3 2 2 3 4 3 3 3 2 1 1 1 2 2 2 4 4
5 5 6 6 5 7 4 2 5 6 3 9 11 6 6 6 6 15 15 18 20 17 17 17 16 16 15 15 15 16 16 20 24 25 25 25 23 22 23 23 24 24 22 23 24 24 24 23 23 22 22 23 20 19 16 15 20 24 23 20 18 16 15 15 15 14 13 12 12 11 10 10 8 7 5 5 4 3 4 4 4 2 2 2 3 3 2 2 2 2 1 0 1 2 3 4 5
5 6 7 6 7 9 6 2 6 9 5 8 12 6 5 4 6 15 15 18 19 16 17 18 17 17 16 15 14 15 15 18 21 24 26 26 24 23 23 23 24 24 23 24 24 24 25 24 24 22 22 23 21 19 16 14 16 22 24 22 20 19 18 17 16 15 14 13 12 12 11 11 10 8 7 6 4 3 4 4 3 2 2 2 3 3 2 0 0 1 1 1 2 4 5 4 4
6 7 7 5 7 9 5 2 3 7 8 8 11 11 9 4 5 13 16 18 18 15 17 18 17 16 15 14 14 15 16 17 18 23 27 26 25 24 23 23 24 23 23 24 24 25 25 25 26 24 22 23 21 18 17 15 14 16 22 24 22 21 20 18 17 16 15 14 13 13 12 11 11 10 9 7 5 4 4 4 3 2 3 3 3 3 2 1 1 1 1 2 3 5 7 6 4
9 8 7 5 6 8 7 4 0 2 5 8 10 11 11 7 3 10 14 17 18 17 16 17 17 17 16 15 15 15 17 18 19 24 29 27 26 25 24 23 23 24 23 23 24 24 24 24 25 25 24 24 21 18 17 16 14 13 18 23 23 22 21 20 19 17 16 15 14 14 13 12 12 11 10 8 6 4 4 4 4 3 3 3 4 5 3 1 1 2 2 2 3 5 7 7 5
8 7 6 6 7 9 7 5 3 2 3 6 9 10 11 9 6 9 12 15 15 14 13 13 14 15 15 15 15 16 17 18 19 25 29 28 27 26 24 24 23 24 23 23 24 24 24 24 25 25 25 24 21 19 18 17 16 14 16 20 22 23 23 22 21 19 17 16 15 14 14 13 13 12 11 10 7 5 4 4 5 5 3 3 5 5 4 1 0 3 3 2 3 5 8 8 6
3 5 7 8 8 10 6 3 4 4 5 7 6 8 10 9 8 10 12 14 13 13 13 13 14 15 15 16 17 17 17 16 18 23 27 28 28 26 25 24 24 24 24 24 25 25 26 25 25 27 25 24 23 22 21 20 19 18 17 19 22 23 24 23 22 21 18 17 17 15 14 13 13 13 13 12 10 7 6 6 6 7 4 4 6 6 4 3 1 3 5 4 4 6 8 7 4
4 3 6 7 9 9 4 1 4 4 4 6 4 7 11 9 7 8 11 13 15 16 16 15 17 16 15 17 18 17 15 13 16 20 25 27 27 27 26 24 25 26 25 25 26 26 27 27 27 27 26 26 26 25 25 23 22 23 21 22 24 22 23 24 21 20 19 18 18 17 15 14 13 13 13 13 12 9 8 7 7 8 7 5 6 5 5 4 1 3 7 5 5 7 7 5 2
9 4 4 5 5 5 6 3 4 5 5 6 6 9 12 8 5 8 13 15 15 17 18 17 19 18 16 17 18 16 16 15 17 20 24 27 28 28 27 25 26 27 26 26 27 26 27 27 27 27 27 28 28 28 29 28 27 28 26 24 24 20 21 23 20 19 20 18 18 18 17 15 14 14 14 14 13 11 10 9 9 9 9 8 6 5 5 4 3 3 8 7 6 6 5 4 3
11 8 6 5 4 4 5 2 2 3 5 7 7 7 10 7 3 7 13 15 13 14 16 14 15 17 16 17 16 17 19 19 19 20 22 25 28 29 28 27 27 27 26 26 28 27 27 27 27 27 29 30 30 31 34 33 29 29 28 25 24 20 19 22 21 22 23 21 19 19 18 17 15 14 15 15 14 13 12 11 11 10 11 11 8 6 6 5 4 4 7 7 6 5 3 3 4
12 13 11 7 5 5 4 2 5 6 5 6 6 7 9 8 7 8 9 12 12 11 12 13 13 14 13 14 15 17 19 19 19 21 21 23 26 29 29 27 27 27 27 27 28 28 27 27 29 29 30 32 31 33 36 32 28 27 24 20 18 17 17 18 20 21 23 23 21 19 19 18 16 15 15 15 15 14 14 13 12 12 12 12 11 9 7 6 5 4 6 7 7 6 3 3 5
10 15 16 12 8 7 6 5 6 5 5 3 2 7 8 5 9 10 6 9 12 11 13 16 15 14 14 14 16 16 17 17 18 20 21 22 25 27 29 28 28 28 28 28 28 28 27 28 30 30 30 32 32 33 33 29 27 25 21 18 16 15 15 16 19 20 20 21 20 17 19 20 18 16 16 16 16 15 14 14 13 12 12 12 12 11 9 7 6 5 5 6 6 7 5 4 5
8 10 14 15 12 9 9 8 5 4 4 2 2 7 7 3 7 8 6 9 13 12 14 17 15 14 15 15 15 16 17 17 17 19 19 21 24 27 28 30 31 29 28 28 27 28 29 28 30 31 30 31 32 32 31 28 27 25 24 23 21 20 18 18 22 22 18 21 21 17 19 21 19 18 17 17 16 16 15 14 14 13 13 13 12 12 11 9 7 6 5 5 6 7 7 6 6
8 4 9 14 14 13 11 9 7 6 5 6 7 6 6 7 5 5 7 9 11 12 15 16 14 15 17 16 16 17 18 18 17 18 20 21 24 27 29 31 32 30 28 28 27 28 29 29 31 32 30 31 31 31 32 31 29 27 27 26 22 22 21 19 23 25 21 24 25 21 21 21 21 20 19 18 17 16 15 15 14 13 13 14 13 13 12 10 8 8 6 4 7 8 7 7 7
7 4 8 11 13 15 12 9 8 6 5 8 9 6 5 9 4 5 6 9 10 12 15 14 14 17 18 17 18 18 18 18 18 19 20 21 25 29 31 31 31 30 29 28 29 28 28 30 32 33 31 31 32 34 34 34 33 31 30 27 22 23 22 19 21 24 24 25 25 25 24 22 22 21 20 19 18 17 16 15 15 15 14 14 15 14 13 11 9 9 7 5 6 8 8 8 7
5 5 7 10 11 12 11 10 8 6 8 11 11 9 7 10 7 5 6 8 10 10 11 13 15 17 17 17 18 18 17 16 17 18 19 22 27 30 30 30 30 31 30 29 29 28 28 29 31 32 33 31 31 35 36 35 36 33 30 28 24 23 22 19 18 20 22 23 23 25 25 24 23 22 21 21 19 17 17 17 17 16 15 14 15 15 15 13 11 9 8 6 6 7 9 9 8
7 6 6 6 8 8 8 8 6 7 10 13 14 13 10 10 11 8 6 6 6 6 7 11 14 16 17 17 17 17 17 16 17 17 18 22 26 28 29 29 30 31 30 29 29 28 28 29 30 32 32 30 30 34 36 35 35 33 32 32 29 26 23 21 19 19 21 22 22 23 24 24 23 23 23 22 20 19 18 18 18 17 16 15 14 16 16 14 11 10 9 7 7 8 9 10 10
10 9 7 5 5 5 5 5 6 9 11 10 13 14 13 12 11 9 6 6 6 7 9 11 14 16 16 16 16 17 18 17 16 16 17 20 22 25 28 29 30 31 30 30 30 29 29 29 30 31 31 30 31 32 34 34 33 32 33 33 31 28 25 24 23 22 23 24 23 23 24 24 24 24 24 23 22 20 20 19 19 18 18 16 15 15 16 15 13 12 11 9 8 8 9 10 11
11 9 9 7 5 5 7 6 7 10 8 4 8 12 13 12 11 14 12 8 9 11 11 11 13 15 15 15 16 16 16 16 17 16 16 18 19 21 26 29 30 30 30 30 31 30 29 29 31 31 31 32 32 31 33 33 32 32 33 33 31 29 27 27 27 26 27 28 26 24 26 25 26 26 26 25 23 21 21 20 19 19 18 17 16 14 15 16 16 15 13 11 10 9 10 11 11
12 11 9 9 8 6 9 8 7 9 6 3 5 7 9 7 7 16 18 14 13 12 12 13 13 14 14 15 16 15 16 17 17 17 17 17 18 20 25 29 29 30 31 31 32 31 30 29 32 33 31 33 33 32 33 33 33 34 34 33 31 30 29 28 28 27 27 30 29 27 27 27 27 28 27 27 24 21 21 21 20 19 18 17 16 15 14 15 16 17 16 14 13 11 10 11 12
11 12 10 9 9 8 8 7 7 7 5 5 8 6 6 3 2 9 15 16 15 14 15 15 13 13 12 13 15 16 17 17 16 17 19 18 19 23 26 27 28 30 32 33 32 31 30 30 32 34 32 33 34 34 34 34 34 34 33 32 31 31 30 28 28 28 27 30 31 29 29 28 28 29 29 28 25 22 21 21 20 19 18 18 17 16 14 14 15 17 17 17 15 13 12 12 13
9 11 11 11 10 8 5 4 5 4 5 6 8 5 4 1 3 5 9 11 12 13 15 16 15 13 11 11 13 15 16 17 17 18 19 19 20 24 27 28 29 31 32 34 33 32 31 30 32 35 34 34 35 35 35 35 35 34 34 34 32 31 31 28 28 30 30 30 31 30 31 30 29 29 29 29 26 24 22 21 21 20 19 18 18 17 15 14 14 16 17 18 17 16 15 14 14
6 10 12 9 8 8 7 5 3 2 7 6 6 7 6 4 7 8 8 9 10 11 13 16 16 13 12 12 13 15 15 17 18 18 20 20 20 24 29 30 30 32 33 34 33 33 33 32 32 34 33 33 35 36 35 36 35 34 34 35 33 32 32 29 28 30 29 28 30 31 30 30 30 29 29 29 27 27 25 23 21 21 20 19 18 18 17 15 14 15 17 18 18 17 17 16 15
5 9 9 6 6 9 7 6 5 6 9 6 5 9 10 7 6 7 11 12 11 11 12 15 15 13 14 13 13 15 17 18 20 20 19 19 19 23 28 31 33 35 35 35 34 34 34 34 34 35 34 34 36 36 36 35 35 33 33 35 34 33 32 30 28 28 27 27 29 31 30 30 31 30 29 29 28 28 27 25 24 22 21 19 19 19 19 17 15 15 16 18 19 19 19 18 17
7 4 7 7 6 9 8 6 7 8 9 6 5 8 9 8 6 6 12 15 14 12 10 13 14 12 13 14 14 16 17 16 17 17 17 17 18 22 29 32 34 36 35 35 35 35 35 36 35 36 36 36 36 36 34 35 35 34 33 35 35 34 33 31 27 27 28 29 29 29 30 31 31 30 29 29 28 28 27 27 26 24 23 22 20 20 20 19 18 17 16 17 18 20 20 19 18
7 3 7 8 5 6 8 8 6 7 8 7 6 6 7 9 8 7 11 13 15 15 10 10 13 12 13 14 13 14 15 15 16 16 17 19 21 26 32 35 35 36 35 35 36 36 36 36 35 35 36 35 35 35 33 34 34 32 31 33 35 35 35 33 30 29 30 31 30 30 30 30 30 30 30 29 29 28 28 28 26 26 25 24 23 22 21 21 19 17 15 15 17 20 21 20 19
6 6 7 8 6 4 6 8 7 7 7 6 6 6 5 5 6 11 14 12 12 14 11 9 10 13 14 13 13 13 14 15 16 16 18 20 21 26 31 34 34 34 33 33 36 36 36 35 35 36 35 34 35 35 33 34 34 31 31 33 34 35 36 34 31 30 31 30 31 32 31 30 30 31 30 29 29 29 29 28 26 26 26 26 25 24 23 22 21 17 13 12 15 17 19 20 20
3 4 3 3 4 4 7 10 9 9 8 6 6 7 5 3 3 8 14 13 13 13 11 10 10 12 14 12 12 14 14 15 17 17 19 20 19 22 27 30 30 30 31 34 36 35 36 36 36 37 35 35 36 35 33 35 35 34 34 35 34 34 35 33 29 29 30 30 31 33 33 31 30 30 30 30 29 29 29 28 26 26 27 27 27 26 25 23 22 20 16 13 13 14 16 18 20
Wind_Direction
153 155 153 151 145 143 151 184 204 164 234 277 276 294 276 210 242 188 161 149 155 157 136 131 134 125 120 118 127 84 59 139 139 152 129 106 142 147 150 155 156 151 145 140 136 136 132 136 133 132 132 130 128 124 122 120 118 117 117 117 117 115 114 114 114 114 113 114 114 115 115 114 113 111 111 109 109 108 105 102 102 103 100 98 99 98 98 99 99 101 102 99 96 99 101 100 100
157 156 153 149 152 156 137 198 247 162 228 285 315 280 48 143 207 204 166 159 145 137 141 135 125 107 106 104 119 100 65 52 59 103 96 137 140 144 153 154 155 151 148 142 139 138 137 141 137 136 134 132 130 126 124 121 120 119 118 117 116 115 114 114 114 114 113 114 114 116 117 115 113 112 110 108 107 106 102 98 99 102 102 101 100 97 95 95 94 96 97 94 93 95 99 99 98
159 154 151 148 158 218 85 182 268 325 296 318 22 93 141 182 175 130 129 135 131 138 140 134 111 89 119 124 120 104 92 63 108 116 123 147 144 150 156 152 154 152 149 144 142 141 140 145 141 138 136 133 130 128 126 123 122 119 118 116 115 115 115 115 114 114 112 112 113 114 116 114 111 111 110 107 105 104 100 96 96 97 98 98 97 97 94 89 87 90 93 95 96 96 99 100 99
156 153 155 154 160 253 197 196 275 311 316 322 17 106 216 187 123 114 116 125 135 144 145 137 106 51 119 129 109 84 111 116 131 129 140 157 151 151 154 151 152 151 150 147 144 141 142 148 143 140 138 134 132 130 128 126 123 119 119 118 117 116 117 116 114 114 112 111 112 112 113 111 109 110 111 107 104 100 97 95 96 95 92 94 96 96 94 89 86 86 89 96 99 101 103 101 101
152 155 160 164 184 210 239 238 287 271 308 329 346 60 184 141 126 126 120 132 145 150 148 140 106 84 72 87 73 116 117 117 140 144 147 155 151 149 151 151 151 151 151 149 145 141 145 150 144 142 139 135 135 132 130 128 124 121 121 120 120 117 115 115 114 112 111 112 111 111 110 109 108 109 110 107 103 97 95 96 99 98 93 94 99 100 95 90 88 84 86 95 100 101 103 102 101
149 154 167 267 279 268 283 263 279 264 300 271 283 20 141 146 135 133 125 133 147 149 144 132 115 124 99 67 44 95 113 121 146 154 151 151 152 151 149 149 149 150 151 150 147 142 148 151 147 145 140 138 137 135 133 130 126 124 123 121 120 117 115 112 110 109 109 111 110 111 109 107 106 107 108 105 101 94 92 94 98 99 96 96 97 102 100 91 87 84 88 97 101 102 101 101 100
150 149 182 268 255 247 277 278 289 278 323 225 263 355 149 149 140 138 133 137 148 150 138 131 128 123 108 106 99 83 77 125 147 154 153 149 151 152 149 148 148 149 151 151 148 146 152 153 151 148 141 141 140 138 135 132 129 126 124 120 118 116 115 110 107 107 107 109 109 109 108 107 107 106 106 103 99 94 92 92 94 93 95 96 94 101 103 93 88 86 89 98 102 104 101 100 100
161 157 188 230 235 223 277 285 285 273 204 200 271 328 155 151 150 147 144 145 155 160 149 146 145 118 108 136 122 80 68 122 139 144 147 148 151 153 150 149 148 151 152 152 150 149 153 154 155 150 143 144 142 140 138 135 131 127 125 119 117 115 111 109 106 106 105 107 108 105 106 107 107 107 105 104 100 97 93 91 92 92 94 95 96 103 105 96 91 89 88 93 97 100 99 100 103
179 235 177 221 283 253 281 280 275 256 241 232 227 140 149 154 154 150 150 148 153 159 155 159 171 131 122 120 105 93 104 123 129 136 146 150 152 152 151 151 150 152 152 151 150 149 153 156 157 152 146 147 144 142 140 136 132 129 126 121 117 112 110 109 107 106 105 105 104 103 104 105 106 106 105 104 103 101 97 93 91 86 85 87 95 103 104 102 97 91 87 89 93 94 94 97 100
185 252 232 260 271 282 285 259 281 278 240 203 152 147 150 157 156 152 153 147 153 155 149 150 134 130 134 118 103 111 129 132 133 140 149 151 152 152 151 152 151 151 151 150 150 149 153 154 156 154 150 149 146 144 144 138 135 130 124 121 115 112 111 110 109 106 105 103 103 103 104 103 103 103 102 103 103 104 103 101 95 90 86 85 98 103 105 107 101 92 88 93 96 95 96 97 97
182 198 242 278 258 281 299 300 311 327 165 137 132 151 155 157 156 153 150 144 152 149 146 147 120 128 132 116 104 121 136 141 142 147 152 153 153 152 151 152 152 152 151 151 151 150 152 152 154 157 154 151 149 147 145 140 136 129 122 120 115 114 113 111 111 108 107 104 102 103 103 102 101 102 101 102 103 105 106 106 105 105 101 98 108 108 109 108 102 99 97 101 100 99 100 99 98
209 172 216 276 282 272 295 303 313 348 160 174 150 155 160 161 158 154 153 147 150 148 156 166 139 137 130 119 119 132 143 147 148 150 153 154 153 152 153 153 153 154 152 152 151 151 152 152 153 157 159 153 152 152 147 143 137 130 124 121 117 116 115 114 113 110 109 106 104 102 101 99 98 99 98 100 102 103 105 106 106 102 92 88 92 91 98 103 102 107 107 105 98 95 96 96 100
235 200 218 267 274 276 290 290 300 319 194 176 156 155 163 167 163 157 151 146 155 158 159 153 143 139 120 119 128 140 150 151 150 152 153 155 154 152 153 154 154 155 155 153 152 153 154 154 154 156 160 157 155 156 151 146 137 130 127 123 120 118 116 115 112 111 111 108 106 103 100 99 97 98 98 99 99 101 102 103 105 104 99 92 88 85 91 102 108 114 110 103 94 89 87 89 90
221 243 254 269 275 278 276 271 295 291 122 123 138 148 167 172 158 154 147 147 157 151 133 139 146 130 114 131 141 154 157 154 153 153 155 155 154 153 154 155 156 156 156 155 154 155 157 157 156 154 159 161 158 159 155 147 138 131 129 126 123 120 118 116 114 112 110 108 105 102 102 101 101 102 101 101 98 100 101 103 105 107 112 114 119 120 121 122 119 117 109 98 92 88 86 88 89
217 254 225 262 282 272 244 238 311 301 101 133 146 149 160 157 152 156 156 153 139 125 123 139 162 139 147 165 168 166 159 155 155 154 155 154 154 154 154 155 155 156 158 157 157 157 159 160 159 156 159 164 163 162 158 148 141 136 133 130 126 123 121 117 114 112 110 108 105 103 102 100 99 99 97 100 97 96 97 98 99 101 108 116 126 129 128 126 117 112 111 103 96 94 90 89 93
216 246 243 255 264 261 205 202 244 205 99 136 148 151 147 124 160 157 151 141 119 142 140 152 182 190 171 175 163 158 157 154 154 154 154 153 153 153 153 156 156 158 161 160 161 161 162 162 161 160 160 166 167 164 159 150 144 141 138 134 131 128 123 118 114 113 110 108 110 109 105 102 97 95 96 98 96 91 90 89 90 92 95 103 106 105 105 102 100 103 106 98 82 80 79 76 84
203 230 252 251 236 249 205 196 200 61 85 140 153 164 152 134 164 137 129 136 132 153 145 134 162 18 160 156 145 150 153 153 154 155 155 154 154 154 156 158 158 160 163 165 166 164 166 166 165 164 162 167 170 166 161 155 149 146 142 139 136 132 127 122 118 115 114 111 112 109 105 104 99 98 96 94 94 89 86 84 84 85 86 90 89 87 88 85 89 98 103 100 88 83 82 77 88
196 201 232 245 231 238 219 189 33 1 218 161 167 176 163 150 160 145 140 140 137 147 129 112 98 87 121 131 139 147 152 154 156 158 158 160 159 159 162 163 163 164 166 169 171 168 169 170 169 168 165 167 171 169 165 160 155 152 148 144 141 139 134 128 127 123 121 118 114 110 105 104 99 96 93 90 93 91 88 88 85 84 82 82 84 83 84 87 91 98 106 111 110 111 112 104 112
203 201 225 236 217 210 251 286 331 340 332 165 176 182 175 162 157 161 161 149 147 147 136 127 107 107 123 134 143 148 155 158 160 163 163 165 165 165 166 166 167 168 168 171 172 172 172 173 173 172 168 169 172 171 170 166 160 158 154 150 148 145 142 137 136 133 128 123 117 116 110 108 105 97 97 96 91 91 91 91 87 85 84 78 84 85 82 87 87 95 104 103 103 111 118 117 121
205 210 233 238 238 245 274 280 279 306 310 172 180 178 178 165 156 175 171 158 167 168 156 152 140 137 141 145 148 152 158 161 164 167 167 168 169 168 168 169 170 170 171 170 171 174 176 176 176 175 173 172 174 173 173 172 165 164 160 156 155 151 149 145 143 140 133 128 123 121 116 116 115 107 108 104 97 97 88 87 86 85 83 74 79 81 77 78 76 83 89 85 86 95 103 108 112
192 209 231 236 244 241 283 302 292 311 267 178 168 173 183 170 166 183 167 164 191 195 179 170 158 150 151 153 154 157 161 164 168 171 169 169 170 170 171 171 172 171 170 170 171 175 179 180 179 179 177 176 178 175 175 177 171 168 167 162 162 159 156 153 149 148 141 135 132 126 124 124 120 115 113 112 108 101 85 81 81 78 79 73 72 70 64 62 59 58 60 67 74 81 87 93 95
209 223 240 250 261 263 343 348 13 17 352 162 164 181 179 166 181 190 180 186 205 202 189 171 157 153 156 159 158 162 165 167 171 173 171 171 171 171 173 172 171 171 170 172 173 176 180 182 182 180 181 179 181 179 176 180 176 173 173 169 168 167 164 161 158 156 152 145 144 139 133 128 122 117 113 120 123 112 100 85 79 76 77 68 63 58 48 47 43 39 43 54 63 69 77 82 80
229 235 246 248 256 270 297 312 317 343 340 242 193 192 168 169 195 198 199 209 179 154 170 157 153 155 156 158 161 166 169 171 173 175 175 173 173 172 173 173 172 172 173 174 174 177 180 183 184 183 185 183 184 185 181 180 180 180 179 174 174 176 172 171 169 167 164 158 157 153 146 139 130 126 122 129 133 127 121 119 115 96 75 60 56 52 42 38 35 34 35 44 55 61 65 68 66
234 247 259 254 259 266 277 293 297 309 302 289 250 195 185 191 200 194 208 223 96 126 149 145 148 152 155 159 166 170 171 174 174 176 176 175 176 172 171 173 173 173 174 175 174 178 180 183 186 186 187 186 186 188 186 182 183 184 183 180 180 182 180 180 180 177 175 172 171 168 160 155 146 139 139 138 139 134 123 118 107 82 68 54 50 47 38 31 26 25 22 25 35 43 49 53 55
230 241 263 261 263 271 280 285 287 294 288 291 260 215 210 204 193 191 207 209 135 137 140 141 146 152 160 164 167 170 172 174 173 173 175 177 177 172 172 174 175 175 175 175 176 179 182 182 185 187 188 188 188 189 188 188 186 185 186 184 184 186 187 189 187 185 184 182 183 179 170 166 161 151 148 148 141 134 123 109 87 71 64 48 40 33 30 25 23 22 16 15 16 26 38 41 42
226 233 255 270 275 279 285 283 281 285 277 283 269 245 234 207 191 210 204 180 141 141 144 146 150 157 165 168 169 171 171 174 175 174 175 176 176 176 176 176 177 179 177 176 178 181 183 184 186 189 189 189 189 190 192 193 192 188 189 187 185 188 191 194 191 190 193 191 191 185 177 170 166 162 159 156 148 145 141 125 99 86 68 46 37 20 18 19 19 20 16 17 13 20 28 27 27
217 233 257 266 276 278 277 275 272 278 273 267 258 257 252 197 192 230 185 158 145 144 151 154 157 163 167 170 171 173 174 177 176 174 174 175 178 180 180 180 180 179 177 178 181 182 183 186 189 190 190 190 190 193 195 198 198 193 192 191 188 189 192 194 193 197 199 197 197 192 183 172 167 169 166 159 157 161 165 149 114 92 55 33 26 12 9 12 13 15 20 24 18 22 24 22 29
256 262 274 265 275 278 269 264 262 262 264 256 241 258 260 185 204 230 159 151 153 150 156 162 165 168 169 171 171 174 177 177 176 176 178 180 182 183 183 183 182 179 179 181 182 182 184 187 190 191 192 192 192 196 198 201 202 197 195 196 194 193 192 195 198 202 203 200 199 195 188 177 169 170 168 164 168 181 202 199 324 24 18 3 358 359 5 9 11 14 21 26 20 29 30 25 35
257 275 285 281 289 282 267 254 244 227 242 243 226 260 247 191 214 203 149 155 158 154 160 165 169 170 170 171 171 176 178 176 179 183 185 184 184 185 186 186 183 180 181 182 182 182 185 187 190 193 194 195 196 197 199 203 205 202 199 200 199 198 196 202 206 206 204 203 200 195 191 183 175 176 175 171 181 210 230 239 294 328 345 351 348 353 16 15 15 16 12 13 8 20 26 20 26
238 253 267 286 293 279 263 237 219 210 225 200 191 264 236 198 208 169 148 159 158 158 165 168 170 170 173 174 173 178 178 179 183 187 188 186 186 188 188 187 185 182 179 181 182 183 185 187 190 193 195 198 199 199 201 205 208 207 205 205 203 201 203 209 211 210 206 205 205 202 197 192 188 186 185 184 198 233 248 262 287 318 337 348 354 13 38 32 32 32 10 359 354 10 10 352 1
213 219 239 259 268 261 200 140 195 197 202 181 190 258 258 229 191 162 157 162 161 165 169 170 173 172 174 177 177 179 181 184 186 187 189 188 188 189 189 188 187 186 181 181 183 183 185 187 190 193 196 198 199 200 202 205 210 212 211 211 210 208 209 212 214 213 210 209 209 208 204 204 202 196 194 201 215 243 262 274 283 307 326 339 354 15 39 42 38 26 12 355 338 343 336 327 331
197 196 218 218 233 257 240 178 207 212 193 181 197 244 263 269 178 162 165 167 167 170 172 173 176 176 177 179 180 181 183 185 187 188 189 190 189 189 190 189 189 189 187 185 184 184 185 188 191 194 195 197 199 201 202 205 211 215 216 217 217 215 214 214 215 214 214 213 213 214 212 212 213 208 206 213 229 255 270 277 280 293 311 330 346 2 29 56 41 352 315 314 319 317 314 314 316
201 210 223 196 204 245 253 211 224 229 222 192 206 238 265 272 160 164 170 172 174 172 173 177 178 179 179 180 182 182 182 184 188 190 189 189 190 190 190 190 191 192 191 188 186 186 187 189 193 195 195 195 198 200 201 204 209 215 219 221 222 222 219 218 217 216 218 219 217 218 217 218 220 216 215 222 237 260 272 272 268 281 305 326 331 345 13 66 61 336 299 296 312 318 314 311 312
194 209 222 197 203 233 246 240 221 214 219 211 214 235 255 264 142 167 176 175 178 177 177 179 179 181 181 182 184 183 184 185 188 191 189 189 190 190 191 191 192 192 193 192 190 189 188 190 194 196 195 195 197 199 201 204 206 213 219 223 225 226 225 223 223 222 223 224 223 223 221 223 224 220 222 227 235 255 270 262 252 268 296 316 307 299 312 258 212 185 249 301 313 319 316 314 308
200 198 209 207 214 233 237 233 176 154 207 216 216 233 248 253 165 173 184 181 184 185 182 181 179 181 181 183 187 186 188 190 190 188 187 188 190 190 191 192 192 192 193 194 193 192 190 192 196 198 198 197 197 198 200 203 205 208 217 222 225 228 230 228 228 228 227 229 230 228 225 226 227 223 223 227 231 245 267 262 253 260 281 301 287 276 283 272 215 205 200 286 306 311 308 303 295
204 200 212 214 215 232 235 234 267 303 260 237 228 238 246 246 219 189 188 189 194 192 181 180 181 181 183 186 189 190 192 195 191 187 185 187 190 190 191 192 192 193 194 194 194 193 191 191 195 199 202 199 194 195 198 202 205 207 214 220 222 227 230 231 231 231 232 234 233 232 229 228 229 226 225 227 229 234 255 264 259 260 263 277 275 272 278 296 245 208 203 232 275 288 291 289 286
209 199 216 222 224 234 228 219 261 282 276 254 237 249 253 249 230 201 188 190 198 197 187 184 183 183 186 189 191 192 194 194 188 188 188 187 189 189 189 190 191 192 193 194 194 194 195 193 194 198 201 199 194 194 197 199 201 203 208 214 218 224 228 230 232 233 234 236 235 232 230 231 231 230 229 229 231 234 244 255 260 265 261 258 275 281 281 293 315 186 195 213 248 268 281 284 282
251 213 213 224 225 238 250 258 277 286 277 259 255 270 262 253 239 205 182 188 200 201 194 189 187 187 189 191 193 193 190 187 185 189 192 190 189 188 188 189 190 191 191 192 194 196 196 195 196 198 198 199 198 197 197 198 201 204 206 213 217 220 225 228 230 233 234 236 236 230 228 231 232 234 235 233 234 236 241 251 259 267 269 265 277 288 286 290 297 182 187 205 237 251 274 280 234
243 236 227 230 214 246 268 256 271 272 266 268 275 277 269 263 244 206 187 193 206 206 199 192 188 188 191 192 192 189 186 186 186 189 192 191 190 189 189 190 192 192 191 192 195 196 196 196 196 197 198 200 201 202 204 204 206 210 211 216 218 218 224 227 228 231 234 235 235 229 227 229 231 235 238 236 236 238 244 253 258 264 268 267 270 275 279 287 287 202 190 204 227 234 261 260 176
232 231 230 225 193 222 236 165 21 288 257 276 288 280 272 268 235 211 202 203 210 208 203 199 194 193 194 192 190 188 186 186 186 188 190 191 191 190 191 191 191 192 193 193 194 195 196 197 196 196 199 202 203 207 211 210 211 215 216 219 221 220 225 229 231 234 236 236 234 230 227 227 229 234 237 237 238 243 251 256 258 261 263 266 268 263 258 262 264 222 200 206 211 213 228 210 179
225 230 232 226 212 227 249 349 343 306 246 256 279 272 266 250 237 237 208 204 216 206 196 200 201 199 196 195 196 193 191 188 187 188 189 191 192 192 192 191 190 192 194 194 194 194 196 197 198 198 201 204 205 209 212 210 210 212 211 213 217 218 222 225 227 231 233 233 232 230 229 227 227 231 235 238 241 247 255 257 256 257 259 261 263 260 250 246 252 241 223 215 204 207 209 195 191
226 228 230 232 235 239 263 297 312 294 239 224 271 259 255 218 229 245 193 189 214 201 196 205 201 195 194 198 199 197 196 193 191 191 190 191 192 192 191 191 191 193 194 194 193 194 195 197 198 199 201 204 206 209 209 206 205 205 199 196 198 202 209 214 217 221 224 226 227 227 228 227 225 229 234 238 242 248 254 256 255 255 256 255 254 252 245 245 256 259 250 229 206 209 214 210 205
237 225 216 222 237 244 252 264 272 268 257 312 315 262 262 219 219 230 185 194 213 201 203 210 201 195 199 201 199 196 196 195 194 194 192 191 192 192 193 192 192 195 194 193 193 194 194 195 197 198 200 203 205 206 205 203 202 201 198 198 198 200 204 210 217 220 219 223 224 224 228 228 226 228 232 236 241 247 251 254 254 255 255 251 247 244 240 240 249 259 267 242 212 211 213 216 216
243 210 183 203 225 235 240 250 250 260 287 289 270 256 276 265 225 184 185 209 216 206 211 212 202 200 203 204 201 198 197 195 194 193 193 193 192 193 195 193 194 195 193 191 192 193 193 194 198 199 200 203 204 204 204 203 201 200 202 203 203 205 207 211 220 222 222 226 227 227 230 231 229 228 230 233 237 244 249 251 253 256 256 250 242 239 239 240 244 253 263 245 221 220 218 220 222
238 164 167 193 213 225 231 243 247 257 279 267 244 213 255 265 225 134 177 218 224 214 214 211 206 207 206 205 204 200 199 198 196 194 193 193 194 195 196 195 194 193 193 192 191 191 191 194 198 199 200 202 203 205 205 205 205 204 204 203 203 207 209 212 218 221 224 227 228 230 232 233 233 231 229 230 234 240 245 248 252 255 255 252 243 238 239 240 243 247 251 246 233 228 226 227 228
215 154 180 193 205 216 221 234 245 248 250 251 236 205 227 266 250 182 175 221 231 217 213 211 209 212 208 205 205 201 199 200 200 198 195 194 196 197 196 195 194 193 193 193 190 190 190 193 196 198 200 200 202 205 205 205 207 206 205 204 204 205 206 206 209 215 220 223 226 229 232 233 234 233 230 229 231 237 242 246 249 252 254 254 247 241 240 241 244 245 244 245 243 238 233 231 233
179 167 187 183 196 209 214 224 232 243 245 245 236 213 212 256 260 228 190 210 222 200 205 214 212 214 211 206 205 200 198 199 198 198 197 196 197 197 195 195 194 193 193 190 189 191 191 192 194 196 199 198 199 203 204 205 205 204 206 208 208 206 204 203 203 208 214 218 220 225 230 232 232 232 231 230 230 235 240 243 245 248 250 253 252 246 243 243 244 245 245 245 245 246 241 236 241
187 192 199 181 185 193 207 203 198 233 245 235 226 212 212 239 252 246 216 187 201 213 216 215 211 214 212 207 204 201 199 197 194 195 195 194 194 195 195 195 194 193 192 190 190 192 192 192 193 194 196 197 198 201 203 203 202 203 207 209 209 207 204 204 205 206 211 215 216 220 226 229 230 230 230 231 233 235 238 239 241 243 244 247 251 251 247 243 242 245 247 247 245 246 244 243 245
202 201 197 198 200 190 208 203 200 229 241 226 208 202 217 240 247 254 253 219 213 225 226 225 217 212 210 206 203 202 200 195 192 193 194 193 192 191 193 193 191 191 191 190 191 192 192 191 191 193 195 196 197 199 201 202 202 204 207 207 208 208 207 208 209 208 212 216 215 216 221 224 227 228 229 231 234 235 236 235 236 239 241 243 246 250 251 246 242 244 247 249 247 246 246 246 247
204 202 197 201 199 202 214 210 216 233 237 217 175 187 229 249 235 240 249 245 232 224 225 232 225 210 206 204 201 200 197 195 193 191 192 195 192 189 191 192 189 189 192 192 191 192 191 190 191 192 195 196 197 198 200 202 203 206 208 207 207 208 209 211 212 211 213 216 217 217 220 222 225 227 228 230 233 235 235 234 236 238 239 240 241 246 252 250 245 244 246 250 249 248 250 250 251
205 203 205 210 204 211 218 209 221 239 249 208 167 172 225 220 179 223 235 242 237 223 220 227 226 214 205 201 199 199 198 195 193 192 194 196 191 188 190 191 189 190 193 193 192 190 189 188 190 192 194 194 196 198 200 202 205 207 208 208 207 209 210 211 213 213 214 217 218 219 220 222 224 228 229 230 232 234 235 236 237 238 238 238 239 241 247 251 248 244 246 249 248 247 249 250 252
204 195 208 219 210 210 217 226 232 245 270 227 187 205 246 263 316 261 241 245 238 226 219 219 224 214 198 197 198 199 200 196 193 193 195 194 188 187 189 190 190 191 193 194 193 189 187 188 189 192 194 194 196 198 200 203 205 206 208 208 208 210 211 210 212 215 217 218 220 220 222 225 226 229 231 232 233 234 235 238 238 238 239 239 238 239 242 247 249 246 245 246 245 245 247 248 250
182 191 212 209 191 206 223 239 232 239 260 237 196 227 246 260 274 252 235 246 241 232 223 220 224 207 187 195 199 198 200 196 195 195 193 191 185 186 191 191 190 191 192 193 192 188 188 188 190 192 194 194 196 198 201 204 204 204 207 209 209 209 210 210 212 216 216 217 220 222 224 226 228 230 233 234 234 235 235 237 239 240 241 242 241 240 241 243 246 247 245 244 242 243 246 248 250
188 200 201 163 174 210 226 237 222 223 244 232 195 224 232 231 238 219 217 233 240 234 224 224 223 200 189 201 199 198 199 196 197 195 190 187 185 187 191 192 192 192 191 191 190 188 189 190 191 192 193 194 196 198 200 203 203 203 205 207 208 209 210 210 212 213 212 213 218 222 223 226 229 231 232 234 234 236 236 237 238 239 242 245 243 242 243 244 245 245 245 245 244 243 246 249 251
234 220 174 164 200 206 200 224 230 227 239 239 212 218 229 230 220 206 216 227 240 239 225 227 223 199 196 207 201 197 198 197 196 193 187 186 187 189 191 194 194 192 191 190 189 189 191 192 192 193 195 196 197 197 199 201 203 203 204 206 208 209 209 209 209 209 212 214 217 219 222 226 229 230 232 234 235 235 236 236 237 239 242 245 246 245 245 246 246 245 244 244 244 246 247 249 252
227 231 184 194 219 209 199 211 225 229 238 245 225 210 227 234 227 233 230 226 235 238 227 226 223 208 204 207 203 197 195 197 196 192 191 190 190 192 192 194 194 191 190 188 188 191 193 193 192 194 196 195 196 196 197 199 202 201 202 204 206 208 210 209 209 210 213 216 218 219 221 224 227 230 231 234 235 234 236 237 237 238 240 242 244 245 245 247 247 244 242 241 243 247 249 250 253
211 217 210 205 206 210 210 213 218 228 237 241 236 231 231 217 211 231 236 230 230 234 232 227 220 214 214 209 201 194 192 197 197 194 194 193 193 194 194 193 193 192 189 187 189 192 193 193 193 194 194 193 194 195 196 199 200 199 201 203 204 208 211 210 209 212 214 216 218 220 222 222 225 229 231 232 234 235 236 238 237 238 239 240 242 244 244 246 246 242 238 238 242 247 249 251 253
255 239 241 233 231 222 216 217 212 220 236 237 241 251 242 195 189 220 227 228 227 226 228 231 225 219 219 214 203 196 194 197 196 195 196 194 192 193 192 190 190 190 188 188 190 191 191 193 193 193 193 193 194 195 195 197 198 199 202 204 204 206 209 209 207 209 212 213 217 221 222 222 224 229 231 232 234 235 237 238 237 239 241 241 242 243 243 244 245 243 238 235 236 241 244 248 251